Other Surface Observations
Issued by NWS

Home | Current Version | Previous Version | Text Only | Print | Product List | Glossary On
Versions: 1 2 3 4 5 6 7 8 9 10 11 12 13 14 15 16 17 18 19 20 21 22 23 24 25 26 27 28 29 30 31 32 33 34 35 36 37 38 39 40 41 42 43 44 45 46 47 48 49 50
000
SXUS52 KTAE 230118
OSOTAE
OSOTAE
North Florida/South Alabama/Southwest Georgia Weather Roundup
National Weather Service Tallahassee Florida
900 PM EDT FRI MAY 22 2015

Note: "fair" indicates few or no clouds below 12,000 feet with no
significant weather and/or obstructions to visibility.

!FLZ017-115-028-034-025-230200
...North Florida...

CITY           SKY/WX    TMP DP  RH WIND       PRES   REMARKS
TALLAHASSEE    PTCLDY    81  55  40 N3        30.15R
APALACHICOLA   CLEAR     80  68  66 W5        30.13R
PERRY          PTCLDY    77  58  52 NW3       30.15R
CROSS CITY       N/A     80  64  58 CALM      30.12R
JACKSONVILLE   PTCLDY    71  65  81 NE8       30.17R
$$

!FLZ112-006-005-002-011-230200
...Florida Panhandle...

CITY           SKY/WX    TMP DP  RH WIND       PRES   REMARKS
MARIANNA       CLEAR     77  53  43 N5        30.15R
BONIFAY        FAIR      70  64  81 CALM      30.17R
PANAMA CITY NW FAIR      75  59  57 N5        30.15R
TYNDALL AFB    CLEAR     80  58  47 N8        30.14R
TYND DRONE APT FAIR      78  60  53 N10       30.13R
DE FUNIAK SPR  FAIR      74  59  57 MISG      30.17R
EGLIN AFB      PTCLDY    80  56  42 N5        30.15R
DESTIN         CLEAR     80  62  54 CALM      30.15R
HURLBURT       CLEAR     78  63  60 CALM      30.14R
CRESTVIEW      CLEAR     73  58  59 CALM      30.17R
PENSACOLA      CLEAR     76  60  57 N3        30.15R
$$

!ALZ063-066-230200
...South Alabama...

CITY           SKY/WX    TMP DP  RH WIND       PRES   REMARKS
DOTHAN         CLEAR     71  57  61 N5        30.21R
OZARK CAIRNS   CLEAR     74  55  51 N3        30.17R
FT RUCKER HELI CLEAR     68  57  68 CALM      30.16R
RUCKER HELI 3  FAIR      70  58  66 N2        30.18R
RUCKER HELI 2  FAIR      72  56  57 NW3       30.17R
FLORALA APT    CLEAR     72  55  55 CALM      30.18S
ANDALUSIA      CLEAR     74  56  53 CALM      30.17R
TROY           CLEAR     69  56  62 CALM      30.20R
EUFALA         FAIR      66  60  81 CALM      30.17R
MOBILE         PTCLDY    75  61  61 NE6       30.16R
$$

!GAZ120>161-230200
...Southwest and South Central Georgia...

CITY           SKY/WX    TMP DP  RH WIND       PRES   REMARKS
THOMASVILLE    FAIR      72  59  64 CALM      30.17R
BAINBRIDGE     CLEAR     79  54  41 N3        30.17R
MOODY AFB      CLEAR     74  55  50 N5        30.15R
VALDOSTA       PTCLDY    72  55  55 CALM      30.15R
MOULTRIE       CLEAR     73  55  53 CALM      30.17R
BLAKELY        CLEAR     72  61  68 CALM      30.17S
ALBANY         CLEAR     75  52  44 N3        30.18R
TIFTON         FAIR      72  50  44 CALM      30.17R
FITZGERALD     FAIR      70  55  58 CALM      30.19R
CORDELE        FAIR      73  61  65 CALM      30.19R
AMERICUS       FAIR      72  54  53 CALM      30.20R
HOMERVILLE     FAIR      73  59  60 CALM      30.17R
$$

!GMZ750-755-770-775-230200
...Coastal and Buoy Obs...

STATION/POSITION TIME  TEMP    WIND        PRES    VSBY  WAVE
                       AIR SEA DIR/SP/G                  HT/PER
                 (UTC) (F)     (DEG/KT/KT) (MB)    (MI)  (FT/S)
KEATON BEACH     0100   80     350/  4/  7 1020.6R
CEDAR KEY        0100   82     320/  5/  8 1020.2R
C TOWER          0100   78     290/  4/  5 1020.5R
APALACHICOLA BUO 0050   79 81  360/  4/  6 1020.7R         1/ 4
PANAMA CITY BUOY 0050   77 81   60/  4/  4 1020.8R         2/ 5
MOBILE BUOY      0050   76 82   50/  8/ 12 1021.2R         2/ 5
ORANGE BCH AL BU 0050   77 81  250/  4/  4 1020.3R         1
$$



USA.gov is the U.S. government's official web portal to all federal, state and local government web resources and services.